VKG172 EFHK-EKBI

Flight info

Callsign VKG172
Flight time N/A
Altitude 36000
Route NUNTO Y369 REKDO KOSKA MIKNA ABINO LOKSA
Aircraft A321/M-VGDW/C

Departure

Time N/A
Airport Helsinki Vantaa Airport (EFHK)

Arrival

Time 2026-04-30 18:55
Airport Billund Airport (EKBI)
Time Latitude Longitude Altitude Speed Heading
2026-04-30 17:39 59.34075 21.20929 32715 ft 472 kts 246°
2026-04-30 17:41 59.21059 20.76929 34737 ft 468 kts 246°
2026-04-30 17:42 59.17881 20.65943 35097 ft 465 kts 250°
2026-04-30 17:42 59.13763 20.49023 35574 ft 465 kts 251°
2026-04-30 17:43 59.11008 20.37671 35821 ft 467 kts 251°
2026-04-30 17:44 59.06839 20.20645 36253 ft 467 kts 250°
2026-04-30 17:44 59.02639 20.03645 36278 ft 467 kts 250°
2026-04-30 17:47 58.89917 19.52917 36295 ft 467 kts 250°
2026-04-30 17:48 58.79911 19.13818 36301 ft 466 kts 249°
2026-04-30 17:50 58.68319 18.69367 36298 ft 465 kts 249°
2026-04-30 17:52 58.59580 18.36426 36305 ft 464 kts 249°
2026-04-30 17:54 58.46322 17.87364 36306 ft 462 kts 248°
2026-04-30 17:55 58.40365 17.65654 36584 ft 463 kts 248°
2026-04-30 17:56 58.34413 17.44168 36317 ft 462 kts 247°
2026-04-30 17:58 58.25395 17.11999 36308 ft 461 kts 246°
2026-04-30 18:00 58.13270 16.69442 36298 ft 460 kts 246°
2026-04-30 18:01 58.05658 16.43121 36300 ft 458 kts 246°
2026-04-30 18:02 57.96460 16.11704 36310 ft 458 kts 245°
2026-04-30 18:04 57.87292 15.80504 36327 ft 456 kts 245°
2026-04-30 18:06 57.75200 15.38994 36327 ft 455 kts 245°
2026-04-30 18:08 57.64491 15.02891 36322 ft 456 kts 244°
2026-04-30 18:10 57.52140 14.61944 36329 ft 454 kts 244°
2026-04-30 18:11 57.41245 14.26403 36333 ft 454 kts 243°
2026-04-30 18:13 57.33407 14.01169 36338 ft 454 kts 243°
2026-04-30 18:14 57.25544 13.76116 36346 ft 453 kts 243°
2026-04-30 18:15 57.16037 13.46180 36356 ft 452 kts 243°
2026-04-30 18:16 57.09647 13.26264 36363 ft 453 kts 242°
2026-04-30 18:17 57.06465 13.16407 36364 ft 453 kts 242°
2026-04-30 18:18 57.01647 13.01572 36374 ft 452 kts 242°
2026-04-30 18:18 56.98443 12.91755 36379 ft 452 kts 242°
2026-04-30 18:19 56.95210 12.81888 36381 ft 452 kts 242°
2026-04-30 18:19 56.91988 12.72090 36386 ft 452 kts 242°
2026-04-30 18:20 56.88764 12.62331 36384 ft 451 kts 242°
2026-04-30 18:20 56.85526 12.52566 36388 ft 451 kts 242°
2026-04-30 18:21 56.82283 12.42832 36385 ft 451 kts 242°
2026-04-30 18:21 56.79030 12.33105 36384 ft 451 kts 240°
2026-04-30 18:22 56.75761 12.23370 36385 ft 451 kts 240°
2026-04-30 18:22 56.70871 12.08878 36387 ft 451 kts 240°
2026-04-30 18:23 56.67600 11.99234 35942 ft 451 kts 240°
2026-04-30 18:23 56.65953 11.94391 34997 ft 457 kts 240°
2026-04-30 18:23 56.64269 11.89449 33943 ft 463 kts 240°
2026-04-30 18:24 56.60873 11.79516 31578 ft 471 kts 240°
2026-04-30 18:24 56.59169 11.74547 30294 ft 476 kts 240°
2026-04-30 18:24 56.57416 11.69448 28961 ft 477 kts 240°
2026-04-30 18:25 56.55670 11.64383 28055 ft 469 kts 240°
2026-04-30 18:25 56.52307 11.54658 26347 ft 453 kts 240°
2026-04-30 18:25 56.50653 11.49892 25707 ft 444 kts 240°
2026-04-30 18:26 56.47467 11.40724 25406 ft 429 kts 241°
2026-04-30 18:26 56.45884 11.36176 25407 ft 429 kts 241°
2026-04-30 18:26 56.44286 11.31595 25405 ft 430 kts 240°
2026-04-30 18:27 56.41098 11.22488 25407 ft 430 kts 240°
2026-04-30 18:27 56.39497 11.17925 25406 ft 430 kts 240°
2026-04-30 18:28 56.36330 11.08931 24309 ft 432 kts 240°
2026-04-30 18:28 56.34720 11.04369 23407 ft 436 kts 240°
2026-04-30 18:28 56.31485 10.95231 22178 ft 429 kts 239°
2026-04-30 18:29 56.29901 10.90772 21613 ft 425 kts 239°
2026-04-30 18:29 56.25205 10.77600 19825 ft 413 kts 239°
2026-04-30 18:30 56.22623 10.70383 18660 ft 408 kts 239°
2026-04-30 18:30 56.19095 10.60556 17082 ft 399 kts 238°
2026-04-30 18:31 56.17604 10.56419 16408 ft 396 kts 238°
2026-04-30 18:31 56.14657 10.48259 15259 ft 389 kts 238°
2026-04-30 18:32 56.11736 10.40192 13850 ft 386 kts 238°
2026-04-30 18:32 56.10302 10.36245 13473 ft 378 kts 238°
2026-04-30 18:32 56.07511 10.28582 13400 ft 365 kts 237°
2026-04-30 18:33 56.06130 10.24797 13403 ft 361 kts 237°
2026-04-30 18:33 56.03512 10.17640 13400 ft 328 kts 237°
2026-04-30 18:33 56.02294 10.14322 13409 ft 319 kts 237°
2026-04-30 18:34 56.01086 10.11031 13410 ft 318 kts 237°
2026-04-30 18:34 55.98664 10.04446 13414 ft 318 kts 237°
2026-04-30 18:34 55.97446 10.01137 13417 ft 318 kts 238°
2026-04-30 18:35 55.96534 9.97596 13401 ft 316 kts 259°
2026-04-30 18:35 55.96350 9.93718 13420 ft 315 kts 271°
2026-04-30 18:35 55.96404 9.89796 13420 ft 315 kts 274°
2026-04-30 18:36 55.96601 9.82018 13421 ft 315 kts 274°
2026-04-30 18:36 55.96707 9.78133 13416 ft 315 kts 274°
2026-04-30 18:36 55.96927 9.70343 13419 ft 316 kts 274°
2026-04-30 18:37 55.97041 9.66403 13420 ft 316 kts 274°
2026-04-30 18:37 55.97158 9.62530 13423 ft 315 kts 275°
2026-04-30 18:37 55.97275 9.58612 13420 ft 315 kts 275°
2026-04-30 18:37 55.97389 9.54746 13419 ft 315 kts 275°
2026-04-30 18:38 55.97502 9.50851 13418 ft 315 kts 275°
2026-04-30 18:38 55.97612 9.46942 13417 ft 315 kts 275°
2026-04-30 18:38 55.97721 9.43079 13275 ft 311 kts 275°
2026-04-30 18:38 55.97833 9.39252 12863 ft 311 kts 275°
2026-04-30 18:39 55.97952 9.35411 12456 ft 311 kts 275°
2026-04-30 18:39 55.98077 9.31573 12079 ft 309 kts 274°
2026-04-30 18:39 55.98203 9.27786 11712 ft 307 kts 274°
2026-04-30 18:39 55.98227 9.24002 11319 ft 306 kts 262°
2026-04-30 18:40 55.97524 9.20493 10912 ft 303 kts 236°
2026-04-30 18:40 55.96073 9.17862 10524 ft 298 kts 210°
2026-04-30 18:40 55.94184 9.16572 10146 ft 292 kts 189°
2026-04-30 18:40 55.92196 9.16025 9780 ft 290 kts 185°
2026-04-30 18:41 55.90203 9.15615 9385 ft 288 kts 184°
2026-04-30 18:41 55.88206 9.15231 8980 ft 287 kts 184°
2026-04-30 18:41 55.86248 9.14862 8620 ft 284 kts 183°
2026-04-30 18:41 55.84310 9.15114 8199 ft 279 kts 160°
2026-04-30 18:42 55.82683 9.16820 7825 ft 273 kts 133°
2026-04-30 18:42 55.81381 9.22883 7433 ft 267 kts 96°
2026-04-30 18:42 55.81209 9.26166 7431 ft 268 kts 94°
2026-04-30 18:45 55.79700 9.58825 5868 ft 261 kts 94°
2026-04-30 18:45 55.79548 9.61993 5698 ft 252 kts 94°
2026-04-30 18:45 55.79400 9.65037 5525 ft 244 kts 95°
2026-04-30 18:46 55.79252 9.67986 5356 ft 237 kts 95°
2026-04-30 18:46 55.79107 9.70858 5195 ft 229 kts 94°
2026-04-30 18:46 55.78785 9.73531 5009 ft 223 kts 117°
2026-04-30 18:46 55.77763 9.75490 4820 ft 217 kts 151°
2026-04-30 18:47 55.76326 9.76084 4550 ft 217 kts 185°
2026-04-30 18:47 55.74927 9.75112 4211 ft 218 kts 221°
2026-04-30 18:47 55.74124 9.72965 3966 ft 210 kts 258°
2026-04-30 18:47 55.74127 9.70471 3799 ft 200 kts 283°
2026-04-30 18:48 55.74464 9.68116 3635 ft 192 kts 287°
2026-04-30 18:48 55.74832 9.65905 3412 ft 188 kts 288°
2026-04-30 18:48 55.75139 9.63655 3142 ft 187 kts 280°
2026-04-30 18:48 55.75263 9.61375 2969 ft 184 kts 273°
2026-04-30 18:49 55.75304 9.59091 2975 ft 186 kts 273°
2026-04-30 18:49 55.75319 9.56796 2965 ft 186 kts 271°
2026-04-30 18:49 55.75295 9.54511 2961 ft 187 kts 270°
2026-04-30 18:49 55.75244 9.52231 2960 ft 187 kts 269°
2026-04-30 18:50 55.75174 9.49902 2958 ft 187 kts 268°
2026-04-30 18:50 55.75097 9.47607 2999 ft 186 kts 268°
2026-04-30 18:50 55.75018 9.45392 3040 ft 173 kts 268°
2026-04-30 18:50 55.74945 9.43350 2962 ft 159 kts 268°
2026-04-30 18:51 55.74877 9.41402 2838 ft 159 kts 268°
2026-04-30 18:51 55.74810 9.39456 2626 ft 157 kts 268°
2026-04-30 18:51 55.74745 9.37524 2415 ft 155 kts 269°
2026-04-30 18:51 55.74683 9.35675 2196 ft 149 kts 269°
2026-04-30 18:52 55.74621 9.33829 2000 ft 148 kts 268°
2026-04-30 18:52 55.74562 9.32013 1810 ft 147 kts 268°
2026-04-30 18:52 55.74503 9.30207 1612 ft 147 kts 268°
2026-04-30 18:52 55.74446 9.28419 1418 ft 147 kts 268°
2026-04-30 18:53 55.74388 9.26602 1218 ft 146 kts 269°
2026-04-30 18:53 55.74342 9.24804 1020 ft 146 kts 268°
2026-04-30 18:53 55.74277 9.23031 839 ft 146 kts 267°
2026-04-30 18:53 55.74211 9.21243 635 ft 145 kts 267°
2026-04-30 18:54 55.74163 9.19463 423 ft 142 kts 268°
2026-04-30 18:54 55.74120 9.17732 247 ft 140 kts 266°
2026-04-30 18:54 55.74069 9.16257 234 ft 96 kts 266°
2026-04-30 18:54 55.74044 9.15353 229 ft 59 kts 266°
2026-04-30 18:55 55.74022 9.14710 226 ft 31 kts 266°
2026-04-30 18:55 55.74121 9.14493 228 ft 7 kts 355°
2026-04-30 18:55 55.74171 9.14486 229 ft 6 kts 355°
2026-04-30 18:56 55.74278 9.14473 231 ft 8 kts 356°
2026-04-30 18:56 55.74355 9.14466 233 ft 13 kts 356°
2026-04-30 18:56 55.74426 9.14503 237 ft 9 kts 55°
2026-04-30 18:57 55.74447 9.14813 237 ft 13 kts 86°
2026-04-30 18:57 55.74452 9.14954 235 ft 6 kts 88°
2026-04-30 18:57 55.74478 9.15012 235 ft 7 kts
2026-04-30 18:58 55.74537 9.15010 236 ft 0 kts 356°